Regional Weather Roundup
Issued by NWS Columbia, SC

Current Version | Previous Version | Text Only | Print | Product List | Glossary On
Versions: 1 2 3 4 5 6 7 8 9 10 11 12 13 14 15 16 17 18 19 20 21 22 23 24 25 26 27 28 29 30 31 32 33 34 35 36 37 38 39 40 41 42 43 44 45 46 47 48 49 50
000
ASUS42 KCAE 150710
RWRCAE
REGIONAL WEATHER ROUNDUP
NATIONAL WEATHER SERVICE COLUMBIA SC
300 AM EDT TUE JUN 15 2021

NOTE: "FAIR" INDICATES FEW OR NO CLOUDS BELOW 12,000 FEET WITH NO
SIGNIFICANT WEATHER AND/OR OBSTRUCTIONS TO VISIBILITY.

NOT ALL STATIONS ARE QUALITY CONTROLLED BY THE NATIONAL
WEATHER SERVICE. USE DATA WITH CAUTION...ESPECIALLY
DEWPOINT OBSERVATIONS.

SCZ001>059-115-116-135>137-GAZ040-063>065-077-150800-
...UPSTATE SOUTH CAROLINA...

CITY           SKY/WX    TMP DP  RH WIND       PRES   REMARKS
ANDERSON       CLEAR     71  69  93 CALM      29.85F
LIBERTY        CLEAR     67  67 100 NW6       29.86F
SPARTANBURG    CLEAR     70  68  94 CALM      29.85S
CLEMSON        CLEAR     71  69  93 NW5       29.87F
GREENVILLE     CLEAR     74  71  91 CALM      29.87F
GREENWOOD      CLEAR     70  68  93 CALM      29.86F
GREER          CLEAR     71  67  87 CALM      29.86F
ROCK HILL      CLEAR     68  66  93 SW6       29.85F
LAURENS        CLEAR     72  70  94 CALM      29.85F


...CENTRAL SOUTH CAROLINA...

CITY           SKY/WX    TMP DP  RH WIND       PRES   REMARKS
COLUMBIA APT   PTCLDY    75  70  84 CALM      29.83F
COLUMBIA OWENS MOCLDY    73  71  93 CALM      29.84F
MCENTIRE ANGB  MOCLDY    70  70 100 CALM      29.83F
ORANGEBURG     PTCLDY    74  74 100 S5        29.85F
SUMTER SHAW    MOCLDY    73  70  89 S6        29.83F
AIKEN          FAIR      74  71  88 SW5       29.87S
BARNWELL       FAIR      75  73  94 SW5       29.85F
MANNING        FAIR      73  70  88 SW6       29.85F
CAMDEN         FAIR      73  70  88 CALM      29.84F
LANCASTER      CLOUDY    68  68 100 CALM      29.84F
WINNSBORO      MOCLDY    72  70  94 SW3       29.85S


...EASTERN AND COASTAL SOUTH CAROLINA...

CITY           SKY/WX    TMP DP  RH WIND       PRES   REMARKS
MYRTLE BEACH   PTCLDY    75  75 100 SW7       29.84F
N MYRTLE BCH   PTCLDY    76  72  87 W6        29.83F
CONWAY         FAIR      72  72 100 SW5       29.84F
MARION         FAIR      72  72 100 SW5       29.83F
HARTSVILLE     MOCLDY    73  70  88 CALM      29.84F
FLORENCE       PTCLDY    76  72  87 MISG      29.83F
DARLINGTON     MOCLDY    75  72  90 SW5       29.83F
CHARLESTON APT PTCLDY    74  72  93 SW3       29.85F
MOUNT PLEASANT FAIR      75  75 100 CALM      29.85F
WALTERBORO     CLEAR     72  72 100 CALM      29.87F
BEAUFORT       CLEAR     77  72  84 CALM      29.86F
HILTON HEAD    PTCLDY    77  73  88 SW5       29.87F


...EASTERN GEORGIA...

CITY           SKY/WX    TMP DP  RH WIND       PRES   REMARKS
AUGUSTA BUSH F PTCLDY    74  71  91 E5        29.83F
AUGUSTA DANIEL PTCLDY    79  70  74 SW3       29.85F
THOMSON        PTCLDY    72  72 100 CALM      29.86S FOG
WASHINGTON     FAIR      73  70  88 CALM      29.86S
CLAXTON        FAIR      75  73  95 CALM      29.87S
SYLVANIA       CLEAR     76  73  90 CALM      29.87S
STATESBORO     CLEAR     74  70  86 CALM      29.87S
SAVANNAH       CLEAR     74  72  93 SW6       29.87F


...SOUTHERN NORTH CAROLINA...

CITY           SKY/WX    TMP DP  RH WIND       PRES   REMARKS
CHARLOTTE      MOCLDY    72  69  90 W3        29.84F
MONROE         CLEAR     69  67  93 SW6       29.83F
WADESBORO      PTCLDY    71  68  89 CALM      29.83S
ROCKINGHAM     PTCLDY    75  69  81 SW6       29.82F
RUTHERFORDTON  CLEAR     68  68 100 CALM      29.87F
ASHEVILLE      CLEAR     62  60  93 CALM      29.95F

$$



USA.gov is the U.S. government's official web portal to all federal, state and local government web resources and services.